This demonstration page uses our WeatherBlox Daily Observations layout. Learn more.

Left ArrowRight Arrow

34.02893, -84.19858

Hourly Observations for February 28, 2017

Temp ( °F °C ) Dew Point ( °F °C ) Humidity (%) Winds ( mph kmh ) Pressure ( in mb ) Visibility ( mi km ) Precip ( " mm )
12:53 am 00:53 Cloudy 51 10.6 43 6.1 74 74 E 5 7 30.29 1026 10 16 0.00 0.00
1:53 am 01:53 Cloudy 52 11.1 42 5.6 69 69 VRB 3 6 30.29 1026 10 16 0.00 0.00
2:53 am 02:53 Cloudy 52 11.1 41 5 66 66 Calm 30.28 1025 10 16 0.00 0.00
3:32 am 03:32 Cloudy 54 12 41 5 63 63 E 3 6 30.27 1025 10 16 0.00 0.00
3:53 am 03:53 Cloudy 53 11.7 40 4.4 61 61 Calm 30.28 1025 10 16 0.00 0.00
4:53 am 04:53 Cloudy 53 11.7 40 4.4 61 61 VRB 3 6 30.28 1026 10 16 0.00 0.00
5:32 am 05:32 Partly Cloudy 52 11 39 4 62 62 Calm 30.27 1025 10 16 0.00 0.00
5:53 am 05:53 Clear 51 10.6 39 3.9 64 64 Calm 30.28 1025 10 16 0.00 0.00
6:20 am 06:20 Mostly Cloudy 52 11 39 4 62 62 Calm 30.27 1025 10 16 0.00 0.00
6:48 am 06:48 Mostly Cloudy 52 11 39 4 62 62 Calm 30.27 1025 10 16 0.00 0.00
6:53 am 06:53 Mostly Cloudy 50 10 39 3.9 66 66 Calm 30.29 1026 10 16 0.00 0.00
7:53 am 07:53 Sunny 52 11.1 41 5 66 66 Calm 30.29 1026 10 16 0.00 0.00
8:53 am 08:53 Sunny 57 13.9 45 7.2 64 64 VRB 3 6 30.29 1026 10 16 0.00 0.00
9:53 am 09:53 Sunny 61 16.1 50 10 67 67 ESE 8 13 30.26 1025 10 16 0.00 0.00
10:53 am 10:53 Sunny 66 18.9 53 11.7 63 63 SSE 8 13 30.25 1025 10 16 0.00 0.00
11:53 am 11:53 Mostly Sunny 67 19.4 54 12.2 63 63 SSE 7 11 30.23 1024 10 16 0.00 0.00
12:53 pm 12:53 Sunny 69 20.6 56 13.3 63 63 VRB 6 9 30.21 1023 10 16 0.00 0.00
1:53 pm 13:53 Sunny 72 22.2 57 13.9 59 59 SSE 10 17 30.16 1022 10 16 0.00 0.00
2:53 pm 14:53 Sunny 71 21.7 57 13.9 61 61 S 9 15 30.14 1021 10 16 0.00 0.00
3:53 pm 15:53 Mostly Cloudy 71 21.7 58 14.4 63 63 S 12 19 30.14 1021 10 16 0.00 0.00
4:53 pm 16:53 Mostly Sunny 69 20.6 58 14.4 68 68 S 8 13 30.15 1021 10 16 0.00 0.00
5:53 pm 17:53 Mostly Sunny 68 20 58 14.4 70 70 S 8 13 30.16 1021 10 16 0.00 0.00
6:36 pm 18:36 Mostly Cloudy 66 19 57 14 73 73 S 9 15 30.15 1021 10 16 0.00 0.00
6:53 pm 18:53 Cloudy 66 18.9 57 13.9 73 73 S 7 11 30.17 1022 10 16 0.00 0.00
7:53 pm 19:53 Cloudy 65 18.3 58 14.4 78 78 Calm 30.16 1021 10 16 0.00 0.00
8:48 pm 20:48 Mostly Clear 63 17 57 14 83 83 SE 6 9 30.12 1020 10 16 0.00 0.00
8:53 pm 20:53 Mostly Clear 63 17.2 57 13.9 81 81 ESE 3 6 30.12 1020 10 16 0.00 0.00
9:53 pm 21:53 Mostly Cloudy 61 16.1 57 13.9 87 87 Calm 30.14 1021 9 14 0.00 0.00
10:53 pm 22:53 Mostly Clear 61 16.1 57 13.9 87 87 Calm 30.11 1020 8 13 0.00 0.00
11:53 pm 23:53 Clear with Mist and Fog 58 14.4 56 13.3 93 93 Calm 30.10 1019 5 8 0.00 0.00

Powered by AerisWeather